Tracking 32412 objects as of 6-Dec-2025
HD Live streaming from Space Station
objects crossing your sky now

KSLV-II DUMMY

Track KSLV-II DUMMY now!
10-day predictions


NORAD ID: 52895
Int'l Code: 2022-065B
Perigee: 699.7 km
Apogee: 709.6 km
Inclination: 98.2 °
Period: 98.7 minutes
Semi major axis: 7075 km
RCS: Unknown
Launch date: June 21, 2022
Source: South Korea (SKOR)
Launch site: Naro Space Center, South Korea (NSC)
Your satellite tracking list
Your tracking list is empty




NASA's NSSDC Master Catalog

Two Line Element Set (TLE):
1 52895U 22065B   25339.93968567  .00000158  00000-0  43922-4 0  9997
2 52895  98.2054 116.8962 0007000 279.1014  80.9393 14.58647561184184
Source of the keplerian elements: AFSPC